Weather past 2 weeks in Malakal, South Sudan

Now
90 °F

Clear.


Feels Like: 86 °F
Forecast: 77 / 97 °F
Wind: 6 mph from West

Location: Khartoum Airport

Current Time: May 5, 2015 at 11:27:13 PM

Latest Report: May 5, 2015 at 11:00 PM


Visibility: 10 mi

Pressure: 29.80 "Hg

Humidity: 9%

Dew point: 25 °F

Location of MalakalLocation

Historic Weather in Malakal — Graph

°F

Malakal temperature yesterday

Maximum temperature yesterday: 102 °F (at 3:00 PM)
Minimum temperature yesterday: 84 °F (at 7:00 AM)
Average temperature yesterday: 94 °F

Past Weeks' High & Low Weather Summary

 TemperatureHumidityPressure
High109 °F (Apr 23, 12:00 AM)38% (May 3, 6:00 AM)29.92 "Hg (May 3, 6:00 AM)
Low75 °F (Apr 25, 7:00 AM)3% (Apr 26, 5:00 PM)29.59 "Hg (May 2, 4:30 PM)
Average94 °F10%29.78 "Hg
* Reported Apr 20 10:30 PM — May 5 10:00 PM, Malakal, Weather by CustomWeather, © 2015

Note: Actual official high and low records may vary slightly from our data, if they occured in-between our weather recording intervals... More about our weather records

Advertising

Malakal weather history for previous 24 hours

 ConditionsComfort  
Time TempWeatherWind HumidityBarometerVisibility
10:00 PM
Tue, May 5
91 °FClear.3 mph9%29.77 "Hg10 mi
9:00 PM95 °FClear.5 mph6%29.74 "Hg10 mi
8:30 PMN/AClear.6 mphN/A29.74 "Hg10 mi
8:00 PM95 °FClear.7 mph6%29.71 "Hg10 mi
7:30 PMN/AClear.7 mphN/A29.71 "Hg10 mi
7:00 PM99 °FSunny.8 mph7%29.71 "Hg10 mi
6:30 PMN/ASunny.12 mphN/A29.71 "Hg10 mi
6:00 PM100 °FSunny.12 mph5%29.71 "Hg10 mi
5:30 PMN/ASunny.15 mphN/A29.71 "Hg10 mi
5:00 PM102 °FSunny.12 mph4%29.71 "Hg10 mi
4:30 PMN/ASunny.12 mphN/A29.71 "Hg10 mi
4:00 PM102 °FSunny.6 mph4%29.74 "Hg10 mi
3:30 PMN/ASunny.6 mphN/A29.74 "Hg10 mi
3:00 PM102 °FSunny.9 mph4%29.77 "Hg10 mi
2:00 PM100 °FSunny.12 mph5%29.80 "Hg10 mi
1:30 PMN/ASunny.10 mphN/A29.80 "Hg10 mi
1:00 PM99 °FSunny.8 mph3%29.83 "Hg10 mi
12:30 PMN/ASunny.10 mphN/A29.83 "Hg10 mi
12:00 PM97 °FSunny.12 mph5%29.83 "Hg10 mi
11:30 AMN/ASunny.16 mphN/A29.86 "Hg10 mi
11:00 AM93 °FSunny.16 mph8%29.86 "Hg10 mi
10:30 AMN/ASunny.16 mphN/A29.86 "Hg10 mi
10:00 AM90 °FSunny.16 mph8%29.86 "Hg10 mi
9:30 AMN/ASunny.12 mphN/A29.86 "Hg10 mi
9:00 AM86 °FSunny.10 mph9%29.86 "Hg10 mi
8:30 AMN/ASunny.12 mphN/A29.83 "Hg10 mi
8:00 AM84 °FSunny.12 mph9%29.83 "Hg10 mi
7:30 AMN/ASunny.9 mphN/A29.80 "Hg10 mi
7:00 AM82 °FSunny.12 mph9%29.80 "Hg10 mi
6:00 AM82 °FClear.12 mph9%29.77 "Hg10 mi
5:30 AMN/AClear.9 mphN/A29.77 "Hg10 mi
5:00 AM84 °FClear.12 mph7%29.77 "Hg10 mi
4:30 AMN/AClear.12 mphN/A29.77 "Hg10 mi
4:00 AM86 °FClear.9 mph9%29.77 "Hg10 mi
3:30 AMN/AClear.12 mphN/A29.77 "Hg10 mi
3:00 AM88 °FClear.12 mph7%29.77 "Hg10 mi
2:30 AMN/A12 mphN/A29.77 "HgN/A
2:00 AM90 °FClear.13 mph6%29.77 "Hg10 mi
1:30 AMN/AClear.12 mphN/A29.77 "Hg10 mi
1:00 AM91 °FClear.12 mph7%29.77 "Hg10 mi
12:00 AM91 °FClear.9 mph7%29.80 "Hg10 mi
11:30 PM
Mon, May 4
N/AClear.10 mphN/A29.80 "Hg10 mi
11:00 PM93 °FClear.12 mph6%29.80 "Hg10 mi
Weather by CustomWeather, © 2015

See weather overviewHow to use our weather pages